Dewpoint
74 73 69 68 71 72 71 69 71 67 68 70 70 71 71 73 74 72 70 70 70 70 70 70 71 72 73 73 74 74 74 73 73 73 73 73 74 74
73 73 72 71 74 75 76 76 75 71 68 71 72 74 71 70 74 74 72 71 69 69 68 68 69 70 71 71 72 72 73 73 73 72 72 72 73 73
75 74 74 75 75 75 76 74 75 75 71 69 71 71 74 73 71 74 74 74 73 68 68 68 67 68 69 70 70 71 71 71 71 71 72 72 72 72
74 74 73 75 74 75 76 75 75 75 74 71 73 73 74 75 73 74 72 73 71 70 68 67 67 67 67 67 68 68 68 69 69 70 70 71 71 71
74 73 73 74 73 73 73 71 72 71 72 72 69 72 74 76 74 72 74 73 73 71 67 67 67 67 66 66 66 66 65 65 66 66 67 68 69 70
75 75 74 73 73 74 73 75 73 71 71 69 68 67 68 74 76 74 73 73 71 70 69 68 68 67 66 65 65 65 63 62 62 63 64 65 66 68
75 74 74 73 72 71 71 73 73 71 68 66 65 70 72 71 72 73 74 75 76 75 76 76 70 70 68 66 67 67 64 63 62 62 62 62 62 64
74 75 74 72 72 71 70 70 71 73 71 67 65 68 70 70 71 72 73 72 72 76 75 73 74 73 73 71 68 66 65 64 63 62 61 61 61 62
73 72 71 68 72 73 70 69 69 68 68 69 69 70 71 73 74 72 72 73 72 75 73 70 74 72 73 74 67 65 64 63 63 62 62 61 60 60
73 72 72 71 71 73 70 73 72 71 70 69 70 70 73 73 75 74 73 73 74 73 74 69 72 70 72 73 68 65 63 62 62 61 61 60 58 58
74 73 72 72 69 66 71 70 72 71 64 67 68 67 66 65 67 70 71 71 69 69 74 70 70 70 72 72 73 65 64 62 61 62 61 59 57 56
73 74 68 70 64 64 72 71 72 70 68 69 70 68 66 68 66 70 69 71 70 68 72 70 70 69 67 70 71 72 69 60 59 59 59 59 57 65
76 76 74 64 62 61 63 75 73 69 70 70 66 66 66 67 68 69 70 67 70 71 71 71 70 70 68 68 68 70 70 68 66 61 55 55 55 61
73 76 75 63 60 59 62 65 63 65 69 64 66 66 64 64 65 70 72 72 69 72 74 71 67 67 69 68 66 67 67 68 67 67 65 59 54 55
74 69 64 62 60 61 59 60 61 69 68 67 64 69 66 68 73 71 70 76 76 75 74 73 69 70 67 64 64 66 66 66 68 67 67 65 63 60
68 69 69 66 64 63 67 64 68 69 67 66 68 67 70 71 71 72 71 70 73 71 74 74 74 73 65 62 62 62 64 62 65 64 66 67 67 66
67 71 71 72 70 69 70 71 73 72 70 68 67 70 68 66 66 69 68 67 67 68 68 73 71 73 68 69 64 65 63 63 64 64 66 63 64 66
67 68 67 67 68 68 71 71 71 70 71 72 71 70 64 66 64 64 67 69 68 67 68 67 66 67 69 68 66 64 64 64 67 69 66 64 63 65
66 68 66 68 68 69 67 67 69 70 71 71 71 70 69 67 64 64 64 64 66 67 67 64 64 63 62 61 66 60 64 66 69 72 72 70 64 63
64 64 63 63 63 64 64 64 64 66 65 66 68 69 69 69 69 67 67 67 66 65 65 66 65 64 63 63 63 65 58 63 64 64 65 67 63 61
60 60 61 61 62 63 63 63 64 63 63 64 65 67 67 66 65 65 65 59 60 65 65 65 65 62 65 67 63 61 66 55 60 62 63 64 62 63
59 59 60 61 61 62 62 63 63 62 62 61 61 61 62 63 63 63 63 62 62 63 63 64 64 65 65 63 59 60 62 65 59 56 57 61 63 60
61 60 61 60 60 61 60 59 58 59 61 60 59 61 61 59 59 59 62 64 64 64 63 63 64 63 62 61 61 61 62 62 62 61 61 56 56 57
Lifted_Index
-4 -3 -2 -1 -2 -3 -3 -2 -2 -2 -2 -2 -2 -2 -2 -2 -3 -3 -2 -2 -2 -1 -1 -1 -1 -2 -3 -4 -4 -4 -4 -4 -3 -3 -3 -3 -3 -3
-5 -4 -3 -3 -3 -3 -3 -3 -3 -2 -2 -2 -2 -2 -2 -2 -2 -3 -3 -2 -2 -2 -1 -1 -1 -1 -2 -2 -3 -3 -3 -3 -3 -3 -3 -3 -3 -3
-6 -5 -5 -5 -4 -4 -4 -4 -3 -3 -2 -2 -2 -2 -2 -3 -3 -3 -3 -3 -3 -2 -2 -1 -0 -0 -0 -1 -1 -2 -2 -2 -2 -2 -2 -2 -2 -2
-6 -6 -6 -6 -5 -5 -4 -4 -4 -4 -3 -3 -2 -2 -3 -3 -3 -3 -3 -3 -3 -2 -2 -2 -1 -0 0 0 0 -0 -0 -1 -1 -1 -1 -1 -1 -1
-6 -6 -6 -6 -6 -5 -5 -5 -4 -4 -4 -3 -3 -2 -3 -3 -3 -3 -3 -3 -3 -3 -3 -2 -2 -1 -0 0 1 1 1 1 0 0 -0 -0 -0 -1
-6 -6 -6 -6 -5 -5 -5 -5 -5 -4 -4 -3 -3 -2 -3 -3 -3 -3 -3 -3 -3 -3 -3 -3 -2 -1 -1 -0 0 1 1 1 1 1 1 1 0 0
-7 -7 -6 -6 -5 -5 -5 -5 -5 -4 -4 -3 -2 -2 -3 -2 -3 -3 -3 -3 -3 -3 -3 -3 -2 -2 -1 -1 -0 0 0 1 1 1 1 1 1 1
-7 -7 -7 -6 -6 -5 -5 -4 -4 -4 -3 -2 -2 -3 -3 -3 -3 -3 -3 -3 -3 -3 -3 -3 -3 -2 -2 -2 -1 -1 -0 0 1 1 1 1 1 1
-7 -7 -6 -6 -6 -6 -6 -5 -4 -3 -3 -2 -2 -3 -3 -3 -3 -3 -3 -3 -3 -3 -3 -2 -2 -2 -2 -2 -2 -2 -1 -1 -0 0 1 1 1 1
-6 -6 -6 -6 -6 -6 -6 -5 -5 -4 -3 -2 -2 -2 -3 -3 -3 -3 -3 -3 -3 -2 -2 -2 -2 -2 -2 -2 -2 -2 -2 -1 -1 -1 -0 0 0 0
-6 -6 -6 -6 -6 -6 -5 -5 -5 -4 -3 -3 -2 -2 -2 -2 -1 -2 -2 -2 -2 -2 -2 -1 -1 -1 -1 -1 -2 -2 -1 -1 -1 -1 -1 -0 -0 -0
-6 -6 -6 -5 -5 -5 -5 -5 -5 -4 -3 -3 -2 -2 -2 -1 -1 -1 -2 -2 -2 -2 -2 -1 -1 -1 -1 -1 -1 -1 -1 -1 -1 -1 -1 -1 -1 -1
-6 -6 -5 -5 -5 -4 -4 -4 -4 -4 -3 -3 -2 -2 -2 -2 -2 -2 -2 -2 -2 -2 -2 -2 -1 -1 -0 -0 -0 -0 -0 -0 -0 -0 -0 -0 -1 -1
-5 -5 -5 -4 -4 -3 -3 -3 -3 -3 -2 -2 -2 -2 -2 -2 -2 -2 -2 -3 -3 -3 -2 -2 -1 -1 -1 -0 0 0 0 0 0 0 0 0 -0 -0
-5 -5 -4 -4 -3 -3 -2 -2 -2 -2 -2 -2 -2 -2 -2 -2 -2 -2 -2 -2 -3 -3 -3 -3 -2 -2 -1 -0 0 1 1 1 1 1 1 1 1 0
-4 -4 -4 -3 -3 -3 -2 -2 -2 -2 -2 -2 -2 -2 -2 -2 -2 -2 -1 -1 -2 -2 -3 -3 -3 -3 -1 -0 0 0 1 1 2 2 2 2 1 1
-3 -3 -3 -3 -3 -3 -3 -3 -3 -3 -3 -3 -3 -2 -2 -2 -2 -2 -1 -1 -1 -2 -2 -2 -2 -3 -2 -1 -1 -1 -0 0 0 1 1 1 1 1
-2 -3 -2 -2 -2 -2 -2 -2 -3 -3 -3 -3 -3 -3 -2 -2 -2 -2 -2 -2 -2 -2 -1 -1 -1 -1 -1 -1 -1 -1 -1 -1 -1 -1 -1 -0 0 0
-1 -1 -1 -1 -1 -1 -1 -1 -1 -2 -2 -2 -2 -2 -2 -2 -2 -2 -2 -2 -2 -2 -1 -1 -0 -0 -0 -0 -1 -1 -1 -1 -1 -1 -2 -1 -1 -0
-0 -0 0 0 0 -0 -0 -0 -0 -1 -1 -1 -1 -2 -2 -2 -2 -2 -2 -2 -2 -2 -2 -1 -0 -0 0 -0 -0 -0 -0 0 -0 -0 -1 -1 -1 -0
1 1 1 1 1 1 1 0 0 -0 -0 -0 -0 -1 -1 -1 -1 -1 -1 -1 -1 -1 -1 -1 -1 -0 -0 -1 -0 -0 0 1 1 1 1 0 0 0
2 2 2 2 2 2 1 1 1 0 0 0 0 0 0 0 -0 -0 -0 -0 -0 -0 -0 -0 -0 -0 -0 -0 -0 0 0 0 1 1 1 1 1 0
2 2 2 2 2 2 2 2 1 1 1 1 1 1 1 1 0 0 -0 -1 -1 -0 -0 -0 -0 0 0 0 0 0 0 0 0 1 1 1 1 1